Regional Weather Roundup
Issued by NWS Kansas City/Pleasant Hill, MO

Home | Current Version | Previous Version | Graphics & Text | Print | Product List | Glossary Off
Versions: 1 2 3 4 5 6 7 8 9 10 11 12 13 14 15 16 17 18 19 20 21 22 23 24 25 26 27 28 29 30 31 32 33 34 35 36 37 38 39 40 41 42 43 44 45 46 47 48 49 50

000
ASUS43 KEAX 300904
RWREAX

WEATHER ROUNDUP FOR EASTERN KANSAS AND NORTHWEST MISSOURI
NATIONAL WEATHER SERVICE KANSAS CITY/PLEASANT HILL MO
400 AM CDT THU OCT 30 2014

KSZ040-057-103>105-MOZ028-029-037-043-301000-
...KANSAS CITY METROPOLITAN AREA...

CITY           SKY/WX    TMP DP  RH WIND       PRES   REMARKS
K.C. INTL      PTCLDY    46  37  71 S10       30.02F
K.C. DOWNTOWN  CLEAR     50  36  58 SW3       30.04F
LEES SUMMIT    CLEAR     48  35  60 S9        30.04F
OLATHE - IXD   CLEAR     46  38  73 S7        30.05F
OLATHE - OJC   CLEAR     44  37  76 S7        30.03F
LAWRENCE       CLEAR     43  37  79 SE6       30.03F

$$

MOZ001>008-011>017-020>025-030>033-038>040-044>046-053-054-301000-
...NORTHERN AND CENTRAL MISSOURI...

CITY           SKY/WX    TMP DP  RH WIND       PRES   REMARKS
ST. JOSEPH     PTCLDY    48  38  68 SE10      30.02F
MOSBY          MOSUNNY   45  36  70 CALM      30.05F
WHITEMAN AFB   CLEAR     44  34  68 S6        30.06F
CLINTON        CLEAR     43  37  81 CALM      30.08F HAZE
SEDALIA        CLEAR     43  34  70 S9        30.09F
WARSAW         NOT AVBL
MARSHALL       CLEAR     41  36  81 E5        30.09F
CHILLICOTHE      N/A     45  35  68 SE3       30.09F
MOBERLY        PTCLDY    41  32  70 SE5       30.10F
KIRKSVILLE     MOCLDY    39  35  86 SE5       30.10F

$$

MOZ041-047>049-056>058-063>065-088>090-097-301000-
...EASTERN AND SOUTHERN MISSOURI...

CITY           SKY/WX    TMP DP  RH WIND       PRES   REMARKS
ST. LOUIS INTL CLEAR     40  35  83 CALM      30.15F
SPIRIT OF STL  CLEAR     35  33  92 CALM      30.14F
COLUMBIA       CLEAR     40  34  79 SE8       30.11F WCI  34
JEFFERSON CITY CLEAR     36  35  96 SE5       30.13F WCI  32
MEXICO         CLEAR    N/A N/A N/A SE3       30.12F
ROLLA          CLEAR     41  31  67 SE8       30.12S
LEBANON        CLEAR     43  34  70 SE5       30.12F
OSAGE BEACH    CLEAR     39  32  75 SE5       30.11F
SPRINGFIELD    CLEAR     43  36  76 SE12      30.11F
BRANSON        CLEAR     46  36  66 SE3       30.14F
NEVADA         CLEAR     43  37  81 S8        30.09S
JOPLIN         CLEAR     47  37  68 S8        30.10F
WEST PLAINS    CLEAR     39  33  79 CALM      30.15S

$$

IAZ060-094-KSZ022-034>040-054-083-096-NEZ052-066-093-301000-
...KANSAS...SOUTHEAST NEBRASKA AND IOWA...

CITY           SKY/WX    TMP DP  RH WIND       PRES   REMARKS
TOPEKA         PTCLDY    50  41  71 S6        30.01F
MANHATTAN      CLOUDY    56  36  47 SW17G23   29.97F
EMPORIA        PTCLDY    50  39  66 S10       30.02F
CHANUTE        CLEAR     49  41  74 S9        30.06F
WICHITA        PTCLDY    47  35  63 S8        30.04F
OMAHA          MOCLDY    47  32  56 S9        30.01F
LINCOLN        MOCLDY    42  37  82 S5        29.96F
FALLS CITY     MOCLDY    43  37  79 SE7       29.97F
LAMONI         MOCLDY    43  33  68 SE8       30.05F
DES MOINES     CLOUDY    44  34  67 SE6       30.06F

$$




USA.gov is the U.S. government's official web portal to all federal, state and local government web resources and services.